Temp
59 59 59 59 59 59 59 59 59 59 60 60 60 60 60 60 59 54 51 65 65 70 71 75 74 72 70 66 69 66 51 49 55 59 63 73 72 80 83 80 80 81 79 83 84
59 59 60 59 59 59 59 59 59 59 59 60 60 59 59 59 52 50 64 69 69 71 69 69 70 72 61 62 65 60 51 54 63 68 64 70 70 74 76 76 75 77 84 88 85
59 59 59 59 59 58 58 58 58 59 59 59 59 59 59 58 48 57 72 71 71 71 69 70 73 71 59 61 61 59 56 66 69 70 71 71 69 76 74 71 76 76 79 83 84
58 59 59 58 58 58 58 58 58 59 59 58 58 58 59 51 45 63 73 70 71 74 66 67 65 61 56 57 62 56 63 67 69 71 70 70 74 71 72 74 80 82 82 80 80
58 58 58 58 58 58 58 58 58 58 58 58 58 59 54 42 45 65 69 67 69 69 63 62 61 61 53 56 62 59 62 65 68 69 70 72 69 70 72 78 81 82 82 79 78
57 58 57 57 57 57 57 57 57 57 57 58 58 59 52 39 59 62 62 63 63 61 62 62 61 63 59 56 59 59 62 64 66 67 66 67 69 71 74 79 80 80 79 78 76
57 57 57 57 57 57 57 56 56 56 57 58 59 58 50 45 60 61 59 55 58 60 58 63 67 62 59 53 60 59 54 61 62 62 62 69 64 65 74 78 77 78 79 80 75
57 56 56 56 57 57 57 56 56 57 59 60 59 56 44 60 59 56 58 56 59 59 61 64 65 59 56 58 58 53 51 49 61 64 65 67 56 68 74 74 74 76 75 77 79
57 56 56 56 56 56 56 56 57 60 60 60 52 48 41 62 58 62 60 59 61 63 62 71 62 56 55 49 45 48 45 47 55 65 64 63 58 68 74 73 71 73 75 75 75
56 55 55 56 56 56 55 55 57 58 59 60 58 44 52 56 64 67 68 66 59 59 58 57 53 47 45 44 39 43 44 48 48 58 62 59 59 67 70 69 68 69 72 74 76
56 55 55 55 55 55 51 51 50 48 49 47 52 51 55 63 67 62 66 62 60 55 44 51 43 41 48 51 52 49 48 46 53 60 59 58 59 63 68 69 69 72 74 74 74
55 55 55 55 55 54 48 47 51 52 42 55 55 55 60 61 53 59 65 53 51 43 48 44 41 49 53 52 50 49 45 44 52 58 55 55 55 61 65 66 69 69 69 69 72
54 54 55 55 54 51 47 53 57 52 38 48 55 55 58 59 53 53 59 54 48 43 43 39 46 55 52 49 48 46 44 45 46 53 57 53 51 56 62 64 67 67 69 68 68
54 54 54 54 51 45 48 58 54 52 31 44 51 57 61 60 52 64 62 55 48 43 45 42 50 50 47 46 49 41 51 52 50 46 39 52 39 53 59 62 65 66 67 68 70
54 54 54 53 44 44 55 52 54 49 18 49 51 65 60 54 56 58 63 55 45 45 45 41 45 44 45 47 52 45 53 50 50 45 40 44 38 51 54 56 61 66 69 71 74
54 54 54 49 44 49 51 51 49 30 19 42 51 47 47 52 53 57 57 58 54 44 47 47 54 51 48 53 53 54 49 47 47 41 30 43 41 45 51 57 60 62 64 66 66
54 53 51 52 47 50 49 45 29 21 44 39 40 44 42 45 47 50 48 46 37 32 34 44 45 51 54 46 50 47 37 28 26 27 31 46 42 48 52 57 59 60 63 65 67
53 51 49 52 48 49 46 36 19 36 37 46 44 42 40 44 44 45 44 39 46 43 36 33 32 45 54 48 42 41 39 29 25 27 33 48 38 47 58 65 68 68 66 65 64
51 43 44 50 51 49 40 25 29 37 44 42 41 36 36 42 42 40 39 39 42 43 35 34 37 53 54 54 49 41 36 46 35 37 32 40 46 55 62 63 63 64 64 62 62
41 41 45 53 52 45 35 33 36 46 48 45 33 37 31 36 35 35 36 43 42 47 44 39 32 46 51 53 53 45 48 35 32 27 26 35 39 44 52 61 59 60 61 60 56
41 41 51 53 50 39 27 32 41 50 49 42 39 36 37 35 36 35 39 45 47 45 45 38 34 37 44 41 38 41 37 39 39 35 28 29 35 50 54 57 58 60 65 58 56
37 37 52 52 36 25 28 40 46 45 47 45 42 40 37 38 35 36 38 42 49 45 37 40 32 28 35 45 50 45 42 40 31 32 37 34 38 60 55 56 60 63 65 56 57
38 36 49 49 26 26 35 40 44 42 41 41 40 42 41 36 31 38 41 48 49 43 38 37 30 25 29 36 43 38 44 42 38 36 33 31 38 59 57 59 61 57 57 58 58
40 33 38 38 36 31 31 35 39 47 43 45 41 43 38 35 38 34 38 45 47 46 51 43 34 30 25 31 39 34 41 41 37 29 35 40 43 53 56 53 58 60 58 57 59
37 34 36 29 32 34 33 36 36 36 44 44 38 40 37 33 37 34 38 41 44 47 42 38 30 33 35 38 38 36 37 39 38 39 33 39 40 52 52 57 60 61 59 59 59
34 34 36 34 36 37 35 34 36 39 39 38 36 38 38 35 37 34 38 37 37 40 37 36 29 35 33 38 38 34 38 40 41 43 42 43 42 57 58 60 61 61 61 60 61
38 38 36 35 33 35 33 39 38 40 40 43 42 39 36 39 44 43 43 42 42 39 34 33 33 29 27 39 35 31 38 41 43 45 45 39 47 54 54 56 55 57 63 63 63
MSLP
1020.96 1020.62 1020.22 1019.90 1019.58 1019.30 1018.94 1018.54 1018.15 1017.59 1017.45 1017.08 1016.71 1016.26 1016.01 1015.64 1014.82 1014.25 1013.31 1010.52 1010.08 1009.28 1009.39 1009.03 1009.22 1009.34 1009.56 1009.66 1009.45 1009.72 1010.46 1009.79 1008.38 1007.59 1006.25 1005.06 1004.22 1003.06 1002.83 1002.66 1002.90 1002.58 1002.52 1002.05 1001.71
1020.88 1020.54 1020.12 1019.73 1019.37 1019.01 1018.58 1018.19 1017.87 1017.56 1017.19 1016.67 1016.53 1016.31 1015.91 1015.03 1014.25 1013.08 1010.11 1009.62 1009.76 1009.67 1009.54 1009.12 1008.89 1009.13 1009.46 1009.44 1009.21 1009.41 1009.52 1008.41 1006.78 1006.69 1006.14 1005.55 1004.99 1003.93 1003.55 1003.13 1002.77 1002.68 1002.26 1001.93 1001.94
1020.92 1020.53 1020.14 1019.77 1019.33 1018.88 1018.46 1018.04 1017.54 1017.05 1016.74 1016.60 1016.35 1015.86 1015.48 1014.87 1014.30 1010.48 1009.35 1009.77 1009.67 1009.47 1009.51 1009.07 1008.84 1008.71 1009.16 1009.16 1008.72 1008.56 1007.90 1007.25 1005.90 1006.05 1006.20 1005.84 1005.36 1004.84 1004.44 1003.28 1002.96 1003.01 1002.31 1002.45 1002.28
1021.05 1020.58 1020.10 1019.59 1019.12 1018.67 1018.25 1017.88 1017.50 1017.10 1016.64 1016.22 1016.02 1015.93 1015.63 1015.28 1013.38 1009.39 1008.82 1008.96 1008.80 1008.43 1009.00 1008.96 1008.88 1008.92 1008.71 1008.48 1008.17 1008.02 1007.23 1007.02 1006.03 1006.06 1006.03 1005.68 1005.67 1005.30 1005.04 1004.01 1003.11 1002.51 1002.55 1002.52 1002.22
1021.02 1020.52 1020.00 1019.43 1018.82 1018.28 1017.80 1017.30 1016.90 1016.66 1016.40 1016.31 1016.05 1015.70 1015.26 1015.44 1012.70 1009.44 1009.42 1009.35 1009.02 1008.74 1008.80 1008.93 1008.53 1008.59 1008.24 1007.99 1008.08 1007.28 1006.92 1006.62 1006.17 1005.60 1005.55 1005.73 1005.06 1004.34 1003.93 1004.12 1003.26 1002.69 1002.53 1002.30 1002.12
1020.92 1020.34 1019.78 1019.22 1018.62 1017.99 1017.33 1016.78 1016.38 1016.11 1015.75 1015.49 1015.51 1015.45 1015.32 1014.70 1010.51 1009.99 1010.29 1009.91 1009.73 1009.41 1009.08 1008.77 1008.08 1008.08 1008.15 1007.73 1007.55 1006.57 1006.47 1006.42 1006.21 1005.70 1005.41 1005.59 1004.65 1004.21 1002.97 1002.68 1002.55 1002.40 1002.07 1001.85 1001.96
1020.71 1020.18 1019.59 1018.90 1018.04 1017.17 1016.49 1015.93 1015.64 1015.46 1014.94 1014.91 1015.09 1015.21 1014.96 1012.32 1010.47 1009.95 1010.21 1009.94 1009.74 1009.82 1009.43 1008.71 1008.14 1008.04 1007.72 1007.83 1007.21 1006.73 1006.82 1006.31 1005.62 1005.74 1005.43 1005.05 1003.82 1002.46 1002.80 1002.48 1001.82 1001.63 1001.47 1001.15 1001.08
1020.70 1020.11 1019.47 1018.85 1018.20 1017.19 1016.33 1015.39 1014.33 1014.41 1014.15 1014.16 1014.54 1014.72 1013.75 1010.75 1010.37 1010.08 1009.64 1009.22 1008.91 1009.15 1009.19 1008.28 1008.17 1008.28 1007.96 1007.56 1007.26 1007.04 1007.04 1006.36 1004.31 1005.29 1005.00 1005.12 1001.12 1002.01 1002.09 1002.12 1001.44 1001.14 1000.76 1000.52 1000.10
1020.69 1020.11 1019.43 1018.73 1018.10 1017.28 1016.33 1015.30 1013.99 1013.93 1014.04 1014.04 1014.23 1014.27 1012.48 1010.44 1010.12 1009.23 1009.60 1009.46 1009.02 1008.37 1008.13 1007.70 1007.75 1007.97 1007.92 1007.95 1008.08 1007.25 1006.42 1005.24 1005.13 1004.29 1004.44 1004.47 999.97 1001.90 1001.82 1001.90 1001.14 1000.91 1000.37 1000.14 1000.01
1020.70 1020.12 1019.43 1018.69 1017.92 1017.07 1016.12 1014.86 1013.48 1014.02 1014.02 1014.17 1014.00 1014.18 1011.49 1010.07 1009.18 1008.55 1008.38 1008.74 1008.90 1008.35 1008.08 1007.75 1007.76 1007.89 1007.95 1007.96 1006.64 1006.58 1006.16 1005.77 1005.15 1004.52 1004.35 1003.82 1000.74 1001.70 1001.63 1001.37 1000.73 1000.52 1000.08 999.89 999.60
1020.48 1019.80 1018.99 1018.27 1017.51 1016.83 1016.12 1015.23 1014.88 1014.31 1014.00 1013.97 1012.78 1012.58 1011.03 1009.27 1008.88 1007.94 1008.10 1008.24 1008.38 1008.26 1008.19 1007.82 1007.99 1006.89 1006.38 1006.77 1006.92 1006.86 1006.64 1006.35 1005.47 1004.69 1004.29 1003.44 1001.60 1001.29 1001.54 1001.15 1000.52 1000.03 999.70 999.27 998.98
1020.19 1019.43 1018.52 1017.64 1016.97 1016.57 1016.62 1016.34 1015.93 1015.96 1014.53 1012.40 1011.89 1011.39 1009.59 1008.80 1008.75 1007.53 1007.51 1008.41 1008.52 1008.65 1008.40 1008.21 1006.61 1007.07 1006.91 1007.08 1007.23 1007.25 1007.04 1006.80 1006.28 1005.52 1004.88 1003.72 1002.44 1001.33 1000.98 1000.31 999.87 999.44 999.12 998.87 998.65
1019.79 1019.15 1018.37 1017.52 1016.65 1016.42 1016.62 1015.80 1015.25 1015.40 1015.18 1012.46 1011.08 1010.06 1008.93 1008.64 1008.34 1007.79 1007.71 1008.16 1008.61 1008.88 1008.59 1008.40 1007.33 1006.96 1007.12 1007.11 1007.16 1007.12 1006.98 1007.01 1006.87 1006.10 1004.91 1004.58 1002.31 1001.15 1000.16 999.62 999.21 998.68 998.28 998.10 997.86
1019.46 1018.82 1018.29 1017.33 1016.59 1016.96 1016.08 1015.13 1015.17 1015.30 1015.01 1012.51 1010.56 1009.19 1008.70 1008.38 1008.10 1007.36 1007.41 1007.94 1008.39 1008.50 1008.24 1007.93 1007.10 1006.85 1006.78 1006.69 1007.06 1006.73 1007.03 1006.98 1006.85 1006.93 1006.12 1005.15 1002.18 1000.93 999.81 998.77 998.50 998.37 997.67 997.33 997.10
1019.09 1018.46 1018.00 1017.89 1017.60 1017.07 1015.55 1015.20 1014.86 1015.23 1014.84 1012.20 1010.71 1009.49 1009.29 1009.04 1008.39 1007.30 1007.08 1007.58 1008.09 1008.23 1008.25 1007.46 1006.91 1006.58 1006.38 1006.27 1006.42 1006.38 1006.86 1007.01 1007.08 1007.14 1006.67 1005.79 1005.07 997.41 998.92 997.99 997.14 996.96 996.91 996.23 996.22
1018.81 1018.29 1017.88 1017.60 1017.65 1015.92 1015.44 1015.27 1015.25 1015.99 1014.58 1012.76 1011.72 1011.03 1010.35 1009.20 1008.70 1007.84 1007.64 1007.79 1007.90 1008.15 1007.13 1007.01 1006.56 1006.24 1006.03 1005.99 1006.12 1006.28 1006.59 1006.86 1007.27 1007.66 1006.76 1005.37 1005.33 997.52 998.11 996.70 996.25 996.43 996.32 996.03 995.91
1018.07 1017.59 1017.47 1017.03 1016.26 1015.46 1015.39 1015.82 1016.30 1015.81 1014.97 1014.01 1012.94 1012.03 1011.31 1009.98 1009.30 1008.71 1008.13 1007.85 1008.54 1008.63 1007.38 1006.82 1006.40 1005.83 1005.58 1005.88 1005.81 1006.24 1006.83 1007.33 1008.01 1007.75 1005.40 1004.33 1004.07 997.66 997.33 996.58 996.37 996.14 995.83 995.70 995.63
1017.34 1016.51 1016.27 1015.86 1015.40 1015.56 1015.93 1016.44 1016.62 1016.09 1015.26 1014.45 1013.65 1012.67 1011.81 1010.89 1009.90 1009.55 1008.93 1008.69 1008.41 1008.43 1008.25 1007.65 1006.48 1005.44 1005.00 1005.15 1005.40 1005.76 1006.62 1006.83 1006.82 1006.48 1005.43 1004.46 1001.19 997.76 996.35 995.60 995.20 995.23 995.25 995.23 995.26
1016.78 1016.59 1016.51 1015.24 1015.31 1015.76 1016.68 1017.24 1017.05 1016.01 1015.09 1014.31 1013.76 1013.13 1012.55 1011.97 1011.27 1010.27 1009.71 1009.25 1008.87 1008.51 1008.78 1008.11 1006.57 1005.40 1005.11 1004.90 1005.23 1005.52 1006.10 1006.08 1006.68 1006.22 1005.88 1002.91 999.71 997.72 995.99 995.40 995.26 994.82 995.02 995.12 995.18
1017.80 1017.35 1016.31 1015.23 1015.19 1016.23 1017.28 1017.57 1016.66 1015.59 1014.72 1014.32 1014.15 1013.85 1013.25 1012.47 1011.89 1011.13 1010.02 1009.27 1009.08 1009.06 1009.25 1008.45 1007.72 1006.59 1005.76 1005.24 1005.13 1005.17 1005.53 1006.32 1006.66 1006.36 1005.24 1002.25 999.95 996.86 995.42 994.77 995.54 995.29 995.26 995.10 995.47
1017.94 1017.38 1015.93 1015.44 1015.62 1017.05 1017.93 1017.61 1016.19 1015.05 1014.62 1014.32 1013.92 1013.76 1013.48 1013.02 1012.36 1011.56 1010.48 1009.53 1009.23 1009.17 1008.98 1008.89 1008.59 1007.84 1006.82 1006.05 1005.76 1005.77 1005.74 1006.01 1006.04 1005.78 1004.42 1002.52 998.48 996.26 996.08 995.52 995.64 994.74 994.61 994.91 995.55
1019.02 1018.13 1016.15 1015.74 1017.03 1018.41 1018.43 1017.59 1016.34 1015.10 1014.53 1014.09 1013.82 1013.66 1013.42 1013.13 1012.49 1011.80 1010.77 1010.07 1009.41 1009.64 1009.53 1009.43 1009.49 1008.89 1007.47 1006.29 1005.84 1006.05 1005.93 1006.04 1006.10 1005.58 1004.20 1002.72 998.38 995.95 995.86 995.79 995.71 994.76 994.15 994.42 995.41
1019.96 1018.93 1016.60 1016.30 1018.33 1019.16 1018.56 1017.54 1016.58 1015.66 1015.04 1014.61 1014.16 1013.65 1013.45 1013.34 1012.95 1011.68 1010.66 1009.68 1009.57 1009.70 1009.69 1009.87 1009.93 1009.48 1007.91 1006.92 1006.69 1006.70 1006.40 1006.18 1006.10 1005.75 1004.14 1002.89 998.63 996.34 996.80 996.43 995.74 995.44 995.44 995.48 995.53
1020.29 1019.72 1018.55 1018.60 1019.04 1019.39 1019.08 1017.69 1016.49 1015.45 1015.06 1014.64 1014.13 1013.61 1013.61 1013.24 1012.82 1011.93 1010.84 1010.02 1009.66 1009.63 1009.55 1010.00 1010.23 1009.74 1009.59 1008.88 1008.36 1007.74 1006.91 1006.31 1006.09 1005.52 1003.91 1000.91 1000.07 996.62 997.79 997.33 996.50 995.87 995.73 996.23 996.04
1020.79 1021.01 1020.60 1020.07 1019.63 1019.60 1019.24 1017.91 1016.81 1015.94 1015.27 1014.66 1014.21 1013.79 1013.78 1012.84 1012.11 1011.34 1010.64 1010.28 1009.84 1009.52 1009.29 1009.91 1010.13 1009.90 1009.33 1008.92 1008.48 1007.74 1006.95 1006.16 1005.55 1004.73 1003.84 1001.50 1000.21 997.81 998.16 997.54 996.65 995.72 995.82 996.20 996.94
1021.74 1021.80 1021.05 1020.56 1019.81 1019.35 1018.66 1017.71 1016.93 1016.02 1015.70 1014.63 1014.32 1013.66 1013.30 1012.63 1011.96 1010.71 1010.71 1010.43 1010.19 1009.81 1009.69 1009.96 1009.97 1009.64 1009.07 1008.64 1007.91 1006.98 1005.94 1005.30 1004.46 1003.72 1002.80 1001.82 999.56 998.79 997.80 997.00 996.32 995.27 995.35 995.74 996.61
1022.04 1021.78 1021.67 1020.55 1019.69 1019.07 1018.38 1017.45 1016.87 1016.44 1015.14 1014.47 1013.89 1013.18 1012.35 1011.55 1010.90 1010.26 1009.98 1009.16 1009.16 1009.41 1009.66 1009.97 1010.06 1009.86 1008.57 1007.66 1007.24 1005.41 1003.01 1003.15 1002.84 1002.62 1002.00 1001.11 999.62 998.44 997.70 996.99 996.68 995.66 994.98 994.96 995.61
Wind_Speed
14 15 15 15 16 16 17 16 17 18 18 17 18 19 20 20 21 3 9 13 11 12 6 2 2 4 2 3 4 5 2 5 7 8 4 6 7 3 1 4 3 2 3 8 1
15 16 16 17 17 18 18 19 18 17 17 18 18 18 19 22 8 10 17 13 14 13 4 8 12 7 3 5 4 5 6 11 8 8 2 8 7 15 7 14 7 4 3 6 3
16 17 17 18 18 18 19 19 20 20 20 18 17 18 19 16 6 8 9 7 7 12 13 7 6 5 7 4 6 6 10 15 11 10 6 8 4 8 14 18 15 6 7 7 6
17 18 18 19 19 19 19 19 19 18 19 19 17 15 16 3 6 3 7 24 18 11 10 8 5 6 8 11 6 6 10 14 11 5 4 12 3 10 15 19 16 18 13 8 11
19 20 20 20 21 21 21 21 21 20 18 17 15 13 4 5 14 6 21 18 11 7 6 12 12 6 9 6 5 15 9 6 9 9 11 11 18 19 20 15 16 17 15 13 12
19 21 22 23 23 23 22 22 21 20 19 16 12 8 3 7 7 6 8 7 7 7 7 9 7 6 5 6 14 1 8 13 11 15 7 12 19 16 16 19 18 15 15 12 11
20 22 24 25 25 26 25 24 20 18 17 13 8 5 6 21 5 8 10 8 3 6 5 4 11 5 5 1 7 4 8 11 13 4 7 3 22 26 18 22 24 18 14 15 11
21 22 24 25 25 26 27 28 29 21 13 5 6 3 10 7 5 10 7 9 8 11 9 10 7 5 6 3 5 3 4 15 16 13 7 8 34 9 6 16 23 19 13 13 17
22 22 24 26 26 25 26 26 27 17 3 9 6 5 12 7 6 8 8 9 7 6 7 9 4 6 3 5 4 5 12 15 11 5 7 13 39 13 14 14 19 15 15 14 13
21 20 22 24 25 24 24 24 19 4 4 7 3 2 7 12 15 16 16 10 6 5 5 6 4 5 3 7 19 11 14 3 4 3 8 12 31 18 10 9 14 12 14 15 18
21 21 21 23 24 22 13 6 8 7 3 6 13 8 18 9 13 11 4 6 8 4 4 5 5 16 17 14 12 6 6 2 4 7 12 17 28 23 17 19 22 22 23 23 20
22 23 24 24 25 20 1 2 1 7 10 13 15 11 15 3 6 13 7 5 1 6 7 3 18 7 1 3 9 12 10 8 6 11 5 10 18 17 14 16 17 17 16 15 14
23 23 24 24 25 3 2 4 4 4 2 9 6 6 10 2 4 9 5 2 4 6 7 8 6 5 11 6 10 7 8 9 8 9 18 12 18 15 12 12 15 12 15 11 13
22 22 21 26 4 5 6 4 7 2 3 6 5 5 10 7 4 6 5 6 3 6 6 7 8 10 7 6 15 16 4 9 4 5 9 0 19 20 17 23 20 12 16 14 15
23 23 21 14 4 4 7 8 7 5 3 13 4 8 17 2 10 5 2 3 4 9 3 9 6 3 10 10 8 7 12 11 10 8 4 4 5 25 4 17 20 20 19 22 20
23 22 20 0 1 8 7 8 4 6 4 8 9 15 12 14 10 6 5 1 1 7 7 17 7 9 8 9 8 6 4 8 9 2 6 11 9 27 10 16 12 10 10 11 11
27 24 14 3 5 2 3 4 5 5 7 7 14 16 17 9 11 5 13 7 3 3 3 5 15 7 7 6 5 5 4 1 2 4 13 13 12 25 7 4 4 8 10 11 10
29 21 5 5 2 4 4 6 8 2 4 6 10 16 4 10 8 9 10 5 3 10 2 1 3 9 6 11 7 7 10 6 7 5 5 11 16 13 10 16 17 14 11 9 10
21 4 2 4 3 3 6 6 3 4 8 9 10 4 5 12 7 6 4 3 2 6 2 5 4 3 2 1 6 2 5 9 4 3 2 8 10 14 20 18 9 12 6 10 9
3 4 4 3 5 5 6 3 3 5 11 7 4 2 5 9 6 7 4 2 4 5 3 4 0 4 5 3 6 6 3 3 1 5 6 6 9 13 6 24 3 9 10 9 5
4 4 4 3 5 6 3 5 7 8 9 4 4 5 6 5 5 4 5 7 2 6 6 3 1 3 2 4 4 2 2 4 3 5 5 3 8 7 12 8 9 14 14 10 9
4 3 3 3 5 0 1 6 9 8 7 5 4 4 4 7 5 4 5 5 5 2 4 3 2 4 9 7 8 2 4 3 4 7 8 2 9 8 6 5 9 15 16 8 9
4 3 4 5 3 3 6 6 5 7 8 5 6 3 2 4 5 6 6 5 7 2 2 2 2 4 8 3 5 1 5 5 3 1 10 5 8 7 8 11 9 7 5 5 13
3 5 5 5 1 2 5 5 7 10 8 9 7 4 5 6 6 8 10 7 4 4 9 5 3 4 4 8 6 9 11 5 4 4 6 21 13 32 12 14 16 9 5 3 10
4 2 1 5 4 7 3 5 8 8 4 6 5 4 14 7 14 8 6 6 7 10 4 7 5 5 9 12 14 15 17 17 12 8 8 7 7 21 9 14 14 8 7 9 7
3 4 4 5 6 5 5 4 8 12 5 8 6 17 15 11 14 22 19 10 10 7 3 3 5 3 9 10 19 18 19 19 17 18 13 13 20 14 7 10 13 10 13 14 11
3 3 0 6 4 4 3 5 14 14 9 9 14 16 13 16 14 20 19 21 19 16 7 6 4 1 6 10 11 13 21 23 15 12 12 10 9 7 13 8 6 6 13 17 16
Wind_Direction
352 348 342 338 334 329 326 325 324 326 324 327 329 332 330 325 318 266 242 232 206 259 292 285 160 185 164 241 196 139 109 217 233 170 227 298 344 220 277 340 20 338 152 250 224
349 344 338 334 330 327 325 324 323 321 320 324 327 330 331 330 310 246 243 246 265 284 267 223 233 177 181 208 212 165 184 223 198 204 106 326 345 316 352 318 294 311 336 300 195
346 339 334 330 328 325 323 322 321 320 319 320 324 330 332 329 293 251 84 40 285 269 252 286 269 182 195 195 201 202 218 228 243 217 199 261 270 271 303 298 269 289 297 270 211
345 339 334 331 327 325 322 317 313 312 313 316 322 327 329 300 289 283 315 344 341 312 204 221 231 199 188 204 203 238 214 225 254 229 231 231 228 246 240 252 281 290 279 283 293
343 338 334 330 328 324 321 315 310 310 308 308 310 324 10 14 251 304 323 330 333 358 221 211 203 190 197 201 186 244 237 227 247 260 249 266 259 258 250 249 264 267 276 264 259
338 335 332 330 327 322 315 310 307 306 305 300 300 306 271 291 252 277 312 325 352 352 334 199 214 207 244 214 206 125 219 244 248 257 264 255 265 264 266 270 251 259 260 247 231
339 335 332 330 327 324 320 313 304 303 294 292 291 282 279 252 264 313 325 285 232 255 281 275 256 247 165 294 252 262 293 282 237 198 242 1 272 252 258 266 271 272 263 270 256
336 333 330 330 329 324 321 317 312 311 291 249 197 219 255 277 289 296 279 292 234 232 225 255 266 250 179 299 319 215 190 243 253 224 218 165 262 238 253 242 260 260 261 271 278
337 334 330 330 329 322 315 308 306 328 314 148 136 150 270 292 281 245 190 313 293 229 213 244 177 194 179 157 352 236 239 228 261 202 207 183 258 248 246 254 261 265 268 272 275
336 332 328 329 328 324 318 305 293 4 152 168 169 295 283 310 298 300 295 300 274 283 216 202 181 171 166 159 211 216 230 300 181 206 225 236 257 252 244 250 259 262 268 270 272
337 335 331 331 330 329 334 5 8 344 49 243 257 248 266 259 290 284 301 319 300 227 213 201 163 212 208 225 274 341 301 17 337 227 218 224 251 257 254 253 257 258 261 261 265
336 335 336 334 329 331 96 53 278 259 304 285 254 242 258 217 292 290 129 166 329 302 318 298 231 221 94 197 231 261 276 277 280 270 270 280 273 280 266 257 256 259 255 253 267
333 333 335 331 321 38 277 238 335 19 266 295 253 261 282 110 257 282 140 109 221 257 248 230 260 237 236 249 248 235 226 253 246 311 298 304 285 273 261 253 253 255 257 253 243
329 330 337 336 23 322 293 293 347 121 28 283 330 291 331 317 283 291 181 163 223 234 257 245 234 245 258 238 229 253 229 254 260 209 259 32 290 272 270 265 259 246 253 255 250
327 329 332 330 272 328 263 344 327 65 16 312 349 309 328 301 307 324 61 86 268 262 189 231 284 251 235 240 229 249 236 251 226 239 276 253 290 279 245 259 250 247 247 250 253
325 326 328 124 262 241 343 308 54 50 279 330 350 327 326 323 329 333 292 306 195 276 225 230 240 242 217 252 244 253 224 228 224 129 250 221 201 275 234 249 246 239 243 244 244
323 320 313 188 231 60 338 36 38 89 348 345 317 320 318 317 322 337 324 298 110 330 309 345 230 257 224 236 251 176 83 262 126 191 229 198 201 241 271 277 255 254 257 258 263
324 316 215 219 249 35 43 45 61 340 290 302 308 310 320 346 317 332 322 342 145 217 256 107 241 182 211 199 199 191 162 183 182 182 224 250 233 244 230 258 258 260 258 262 258
328 345 306 273 175 91 59 39 227 325 313 319 325 310 312 333 301 333 317 276 326 28 42 259 240 45 55 54 149 227 162 215 3 239 220 234 277 282 270 269 277 270 280 257 250
349 344 285 324 122 63 69 280 245 286 311 311 275 271 302 316 317 333 292 299 2 17 150 267 343 358 13 355 211 167 205 99 132 223 238 259 253 235 254 252 280 273 251 252 180
28 30 293 46 59 50 123 236 272 287 345 319 279 283 288 305 284 283 310 311 28 342 321 320 85 279 14 219 207 285 197 210 191 208 220 290 260 205 211 271 323 299 290 205 174
353 50 307 51 38 222 356 301 305 336 338 299 281 238 261 297 273 274 282 284 348 6 328 351 194 237 235 239 248 272 246 168 192 232 253 252 266 277 295 321 301 302 305 141 131
348 278 312 78 69 319 300 286 285 337 313 317 293 273 302 275 306 277 254 266 319 251 205 282 298 319 339 17 52 204 245 213 252 293 245 225 251 316 15 333 326 354 20 127 125
1 354 327 43 116 128 311 275 329 320 293 313 265 287 335 289 246 269 273 291 338 232 268 138 218 192 200 264 319 295 287 270 201 244 252 243 291 280 317 335 320 299 110 102 138
30 325 232 309 327 317 259 261 320 342 257 284 292 293 314 282 294 250 237 295 294 278 255 160 226 217 244 260 282 275 263 265 243 236 238 308 287 273 311 297 301 268 151 136 176
38 14 339 277 265 287 309 277 314 326 303 296 273 304 304 275 271 287 279 248 243 291 261 191 252 246 271 254 255 277 253 252 254 252 254 261 274 276 268 300 312 238 167 162 170
320 315 169 274 288 303 267 315 312 309 294 254 296 306 298 290 295 285 272 269 257 255 225 186 203 247 257 287 301 277 229 223 228 230 214 227 256 332 313 316 321 296 181 170 166